| time (UTC) | temp F | wind direction | speed MPH | gust MPH | rain 1hr in | rain 24hr in | rain mn in | humidity % | barometer mb |
| 20260905041558 | 43 | 0 | 0.0 | 2.0 | 0.00 | 0.05 | 0.00 | 92 | 1031.7 |
| 20260905040058 | 43 | 319 | 0.0 | 2.0 | 0.00 | 0.05 | 0.00 | 92 | 1031.6 |
| 20260905034605 | 42 | 360 | 0.0 | 2.0 | 0.00 | 0.05 | 0.00 | 92 | 1031.4 |
| 20260905033102 | 43 | 0 | 0.0 | 2.0 | 0.00 | 0.05 | 0.00 | 92 | 1031.1 |
| 20260905031613 | 43 | 0 | 1.0 | 2.0 | 0.00 | 0.05 | 0.00 | 91 | 1030.9 |
| 20260905030054 | 43 | 0 | 0.0 | 2.0 | 0.00 | 0.05 | 0.00 | 91 | 1030.8 |
| 20260905024554 | 43 | 0 | 0.0 | 2.0 | 0.00 | 0.06 | 0.00 | 91 | 1030.7 |
| 20260905023122 | 43 | 0 | 0.0 | 0.0 | 0.00 | 0.06 | 0.00 | 91 | 1030.7 |
| 20260905021546 | 43 | 351 | 0.0 | 2.0 | 0.00 | 0.06 | 0.00 | 91 | 1030.8 |
| 20260905020059 | 43 | 348 | 2.0 | 3.0 | 0.00 | 0.06 | 0.00 | 91 | 1030.8 |
| 20260905014555 | 43 | 360 | 2.0 | 4.0 | 0.00 | 0.07 | 0.00 | 91 | 1030.8 |
| 20260905013049 | 42 | 351 | 1.0 | 3.0 | 0.00 | 0.07 | 0.00 | 91 | 1030.8 |
| 20260905011556 | 42 | 349 | 3.0 | 4.0 | 0.00 | 0.07 | 0.00 | 91 | 1030.9 |
| 20260905010047 | 43 | 351 | 0.0 | 2.0 | 0.00 | 0.07 | 0.00 | 90 | 1031.2 |
| 20260905004556 | 43 | 345 | 2.0 | 3.0 | 0.00 | 0.11 | 0.00 | 90 | 1031.5 |
| 20260905003050 | 43 | 0 | 0.0 | 2.0 | 0.00 | 0.11 | 0.00 | 90 | 1031.3 |
| 20260905001546 | 43 | 0 | 0.0 | 2.0 | 0.00 | 0.11 | 0.00 | 90 | 1031.5 |
| 20260905000113 | 43 | 346 | 1.0 | 3.0 | 0.00 | 0.11 | 0.00 | 90 | 1031.6 |
| 20260904234557 | 43 | 0 | 2.0 | 4.0 | 0.00 | 0.11 | 0.00 | 90 | 1031.9 |
| 20260904233050 | 43 | 0 | 0.0 | 2.0 | 0.00 | 0.11 | 0.00 | 89 | 1031.7 |
| 20260904231548 | 43 | 348 | 1.0 | 4.0 | 0.00 | 0.11 | 0.00 | 89 | 1032.0 |
| 20260904230058 | 43 | 239 | 0.0 | 2.0 | 0.00 | 0.11 | 0.00 | 89 | 1032.2 |
| 20260904224603 | 44 | 350 | 2.0 | 4.0 | 0.00 | 0.11 | 0.00 | 89 | 1032.6 |
| 20260904223054 | 44 | 0 | 0.0 | 8.0 | 0.00 | 0.11 | 0.00 | 89 | 1032.6 |
| 20260904221600 | 44 | 200 | 1.0 | 2.0 | 0.00 | 0.11 | 0.00 | 89 | 1032.5 |
| 20260904220112 | 44 | 202 | 0.0 | 2.0 | 0.00 | 0.11 | 0.00 | 89 | 1032.3 |
| 20260904214549 | 45 | 0 | 0.0 | 3.0 | 0.00 | 0.11 | 0.11 | 88 | 1032.1 |
| 20260904213051 | 45 | 191 | 0.0 | 1.0 | 0.00 | 0.11 | 0.11 | 88 | 1032.1 |
| 20260904211554 | 45 | 0 | 0.0 | 2.0 | 0.00 | 0.11 | 0.11 | 88 | 1032.5 |
| 20260904210059 | 45 | 221 | 0.0 | 4.0 | 0.00 | 0.11 | 0.11 | 88 | 1032.5 |
| 20260904204558 | 46 | 192 | 2.0 | 5.0 | 0.00 | 0.11 | 0.11 | 88 | 1032.4 |
| 20260904203050 | 46 | 177 | 3.0 | 7.0 | 0.00 | 0.11 | 0.11 | 88 | 1032.8 |
| 20260904201548 | 46 | 188 | 4.0 | 6.0 | 0.00 | 0.11 | 0.11 | 88 | 1033.0 |
| 20260904200045 | 46 | 214 | 3.0 | 5.0 | 0.00 | 0.11 | 0.11 | 87 | 1033.0 |
| 20260904194601 | 47 | 213 | 3.0 | 6.0 | 0.00 | 0.11 | 0.11 | 86 | 1033.0 |
| 20260904193049 | 47 | 195 | 5.0 | 8.0 | 0.00 | 0.11 | 0.11 | 85 | 1032.9 |
| 20260904191550 | 48 | 210 | 3.0 | 6.0 | 0.00 | 0.11 | 0.11 | 84 | 1033.1 |
| 20260904190059 | 48 | 168 | 4.0 | 8.0 | 0.00 | 0.11 | 0.11 | 83 | 1033.1 |
| 20260904184557 | 49 | 14 | 4.0 | 8.0 | 0.00 | 0.11 | 0.11 | 81 | 1033.2 |
| 20260904183049 | 50 | 195 | 5.0 | 11.0 | 0.00 | 0.11 | 0.11 | 80 | 1033.4 |
| 20260904181606 | 51 | 183 | 4.0 | 9.0 | 0.00 | 0.11 | 0.11 | 79 | 1033.5 |
| 20260904180116 | 51 | 180 | 5.0 | 10.0 | 0.00 | 0.11 | 0.11 | 78 | 1033.4 |
| 20260904174610 | 52 | 184 | 4.0 | 8.0 | 0.00 | 0.11 | 0.11 | 75 | 1033.2 |
| 20260904173051 | 53 | 249 | 4.0 | 8.0 | 0.00 | 0.11 | 0.11 | 73 | 1033.2 |
| 20260904171545 | 53 | 248 | 5.0 | 10.0 | 0.00 | 0.11 | 0.11 | 72 | 1033.1 |
| 20260904170059 | 53 | 215 | 5.0 | 8.0 | 0.00 | 0.11 | 0.11 | 73 | 1033.1 |
| 20260904164555 | 53 | 165 | 4.0 | 12.0 | 0.00 | 0.12 | 0.11 | 73 | 1033.0 |
| 20260904163101 | 53 | 167 | 3.0 | 13.0 | 0.00 | 0.12 | 0.11 | 73 | 1032.8 |
| 20260904161600 | 54 | 111 | 4.0 | 10.0 | 0.00 | 0.12 | 0.11 | 73 | 1032.8 |
| 20260904160057 | 54 | 232 | 5.0 | 11.0 | 0.00 | 0.12 | 0.11 | 72 | 1032.6 |
| 20260904154555 | 54 | 274 | 6.0 | 12.0 | 0.00 | 0.13 | 0.11 | 71 | 1032.5 |
| 20260904153051 | 54 | 184 | 5.0 | 12.0 | 0.00 | 0.13 | 0.11 | 71 | 1032.6 |
| 20260904151601 | 54 | 253 | 6.0 | 11.0 | 0.00 | 0.13 | 0.11 | 72 | 1032.5 |
| 20260904150053 | 54 | 245 | 6.0 | 13.0 | 0.00 | 0.13 | 0.11 | 72 | 1032.6 |
| 20260904144552 | 55 | 272 | 6.0 | 12.0 | 0.00 | 0.13 | 0.11 | 72 | 1032.5 |
| 20260904143104 | 55 | 226 | 4.0 | 12.0 | 0.00 | 0.13 | 0.11 | 71 | 1032.5 |
| 20260904141558 | 55 | 257 | 4.0 | 9.0 | 0.00 | 0.13 | 0.11 | 73 | 1032.3 |
| 20260904140055 | 55 | 276 | 3.0 | 13.0 | 0.00 | 0.13 | 0.11 | 72 | 1032.3 |
| 20260904134552 | 55 | 233 | 5.0 | 14.0 | 0.00 | 0.13 | 0.11 | 71 | 1032.1 |
| 20260904133111 | 55 | 241 | 6.0 | 13.0 | 0.00 | 0.13 | 0.11 | 71 | 1031.8 |
| 20260904131555 | 55 | 174 | 8.0 | 15.0 | 0.00 | 0.13 | 0.11 | 71 | 1031.7 |
| 20260904130055 | 55 | 236 | 4.0 | 11.0 | 0.00 | 0.13 | 0.11 | 72 | 1031.7 |
| 20260904124605 | 55 | 252 | 4.0 | 10.0 | 0.00 | 0.13 | 0.11 | 72 | 1031.9 |
| 20260904123109 | 56 | 291 | 4.0 | 9.0 | 0.00 | 0.13 | 0.11 | 70 | 1031.8 |
| 20260904121549 | 56 | 233 | 3.0 | 12.0 | 0.00 | 0.13 | 0.11 | 71 | 1031.9 |
| 20260904120048 | 56 | 207 | 5.0 | 13.0 | 0.00 | 0.13 | 0.11 | 72 | 1032.0 |
| 20260904114556 | 55 | 224 | 7.0 | 14.0 | 0.00 | 0.13 | 0.11 | 72 | 1032.1 |
| 20260904113101 | 56 | 209 | 5.0 | 11.0 | 0.00 | 0.13 | 0.11 | 69 | 1032.3 |
| 20260904111604 | 56 | 190 | 5.0 | 11.0 | 0.00 | 0.13 | 0.11 | 70 | 1032.5 |
| 20260904110109 | 55 | 277 | 5.0 | 16.0 | 0.00 | 0.13 | 0.11 | 71 | 1032.7 |
| 20260904104601 | 55 | 238 | 7.0 | 14.0 | 0.00 | 0.13 | 0.11 | 71 | 1033.0 |
| 20260904103053 | 55 | 251 | 6.0 | 12.0 | 0.00 | 0.13 | 0.11 | 72 | 1033.4 |
| 20260904101603 | 56 | 337 | 5.0 | 13.0 | 0.00 | 0.13 | 0.11 | 73 | 1033.2 |
| 20260904100101 | 55 | 261 | 8.0 | 15.0 | 0.00 | 0.13 | 0.11 | 76 | 1033.1 |
| 20260904094558 | 55 | 254 | 6.0 | 17.0 | 0.00 | 0.13 | 0.11 | 77 | 1033.6 |
| 20260904093111 | 54 | 223 | 7.0 | 21.0 | 0.00 | 0.13 | 0.11 | 78 | 1033.4 |
| 20260904091548 | 53 | 14 | 8.0 | 15.0 | 0.00 | 0.13 | 0.11 | 83 | 1033.5 |
| 20260904090047 | 52 | 13 | 8.0 | 16.0 | 0.00 | 0.13 | 0.11 | 84 | 1033.6 |
| 20260904084552 | 51 | 14 | 6.0 | 18.0 | 0.00 | 0.13 | 0.11 | 87 | 1033.4 |
| 20260904083052 | 51 | 14 | 7.0 | 15.0 | 0.00 | 0.13 | 0.11 | 91 | 1033.4 |
| 20260904081559 | 50 | 274 | 7.0 | 13.0 | 0.01 | 0.13 | 0.11 | 93 | 1033.3 |
| 20260904074555 | 50 | 241 | 6.0 | 18.0 | 0.02 | 0.13 | 0.10 | 93 | 1033.4 |
| 20260904073049 | 50 | 229 | 7.0 | 16.0 | 0.03 | 0.13 | 0.10 | 93 | 1033.2 |
| 20260904071550 | 50 | 13 | 7.0 | 12.0 | 0.02 | 0.12 | 0.09 | 93 | 1033.0 |
| 20260904070050 | 50 | 205 | 8.0 | 16.0 | 0.02 | 0.11 | 0.08 | 93 | 1032.8 |
| 20260904064553 | 51 | 189 | 4.0 | 11.0 | 0.01 | 0.11 | 0.07 | 93 | 1032.5 |
| 20260904063048 | 51 | 255 | 7.0 | 11.0 | 0.01 | 0.10 | 0.07 | 93 | 1032.3 |
| 20260904061552 | 51 | 257 | 5.0 | 13.0 | 0.01 | 0.10 | 0.07 | 93 | 1032.1 |
| 20260904060048 | 51 | 234 | 6.0 | 11.0 | 0.00 | 0.09 | 0.06 | 92 | 1031.7 |
| 20260904054557 | 51 | 265 | 6.0 | 13.0 | 0.00 | 0.09 | 0.06 | 92 | 1031.5 |
| 20260904053101 | 51 | 17 | 9.0 | 16.0 | 0.00 | 0.08 | 0.05 | 92 | 1031.2 |
| 20260904051558 | 51 | 14 | 6.0 | 12.0 | 0.00 | 0.08 | 0.05 | 92 | 1031.1 |
| 20260904050056 | 52 | 13 | 5.0 | 26.0 | 0.00 | 0.08 | 0.05 | 90 | 1030.7 |
| 20260904044550 | 52 | 15 | 7.0 | 13.0 | 0.00 | 0.08 | 0.05 | 91 | 1030.1 |
| 20260904043049 | 52 | 17 | 6.0 | 16.0 | 0.00 | 0.08 | 0.05 | 91 | 1030.0 |